Weather History for Jonesville, VA

Change the Weather History Date:

Wednesday, December 5, 2012

  Actual Average (KLOZ) Record (KLOZ)
Temperature  
Mean Temperature 45 °F 41 °F  
Max Temperature 60 °F 51 °F 72 °F (2001)
Min Temperature 28 °F 32 °F 12 °F (1969)
Degree Days  
Heating Degree Days 20 24  
Month to date heating degree days 117  
Since 1 July heating degree days 947  
Cooling Degree Days 0 0  
Month to date cooling degree days 0  
Moisture  
Dew Point 38 °F    
Average Humidity 69    
Maximum Humidity 100    
Minimum Humidity 29    
Precipitation  
Precipitation 0.05 in 0.14 in 0.99 in (1977)
Month to date precipitation 0.71  
Sea Level Pressure  
Sea Level Pressure 30.24 in    
Wind  
Wind Speed 4 mph (NNW)    
Max Wind Speed 9 mph    
Max Gust Speed -    
Visibility 10 miles    
Events Rain    
T = Trace of Precipitation, MM = Missing Value Source: NWS Daily Summary

Daily Weather History Graph

Daily Weather History Graph

Search for Another Location

Airport:

Trip Planner

Search our weather history database for the weather conditions in past years. The results will help you decide how hot, cold, wet, or windy it might be!

Date:

Astronomy

Dec. 05, 2012 Rise Set
Actual Time 7:30 AM EST 5:16 PM EST
Civil Twilight 7:02 AM EST 5:45 PM EST
Nautical Twilight 6:29 AM EST 6:17 PM EST
Astronomical Twilight 5:58 AM EST 6:48 PM EST
Moon 11:57 PM EST (12/5) 12:00 PM EST (12/5)
Length of Visible Light 10h 43m
Length of Day
9h 46m
Waning Gibbous, 60% of the Moon is Illuminated
Dec 5
Waning Gibbous
Dec 6
Last Quarter
Dec 13
New
Dec 20
First Quarter
Dec 28
Full

Hourly Weather History & Observations

Time (EST) Temp. Dew Point Humidity Pressure Visibility Wind Dir Wind Speed Gust Speed Precip Events Conditions
12:15 AM 60.8 °F 50.0 °F 68% 30.18 in 10.0 mi WSW 5.8 mph - N/A   Overcast
12:35 AM 59.0 °F 51.8 °F 77% 30.18 in 10.0 mi SW 8.1 mph - N/A   Overcast
12:55 AM 60.8 °F 51.8 °F 72% 30.18 in 10.0 mi SW 9.2 mph - N/A   Overcast
1:15 AM 59.0 °F 53.6 °F 82% 30.17 in 10.0 mi WSW 9.2 mph - N/A   Overcast
1:35 AM 59.0 °F 53.6 °F 82% 30.17 in 10.0 mi WSW 6.9 mph - N/A   Overcast
1:55 AM 59.0 °F 55.4 °F 88% 30.17 in 10.0 mi WNW 5.8 mph - N/A   Overcast
2:15 AM 57.2 °F 55.4 °F 94% 30.18 in 10.0 mi Calm Calm - N/A   Overcast
2:55 AM 57.2 °F 57.2 °F 100% 30.18 in 4.0 mi WNW 5.8 mph - 0.02 in Rain Light Rain
3:15 AM 57.2 °F 55.4 °F 94% 30.19 in 2.5 mi NNW 6.9 mph - 0.01 in Rain Light Rain
3:35 AM 55.4 °F 51.8 °F 88% 30.19 in 7.0 mi NNW 6.9 mph - 0.01 in   Mostly Cloudy
3:55 AM 53.6 °F 50.0 °F 88% 30.19 in 10.0 mi NNW 3.5 mph - 0.01 in   Overcast
4:15 AM 53.6 °F 50.0 °F 88% 30.19 in 10.0 mi NNW 5.8 mph - N/A Rain Light Rain
4:35 AM 51.8 °F 50.0 °F 94% 30.20 in 8.0 mi NW 4.6 mph - 0.01 in Rain Light Rain
4:55 AM 50.0 °F 48.2 °F 94% 30.20 in 10.0 mi WNW 3.5 mph - 0.02 in Rain Light Rain
5:15 AM 50.0 °F 48.2 °F 94% 30.21 in 10.0 mi NW 5.8 mph - N/A   Overcast
5:35 AM 50.0 °F 46.4 °F 87% 30.22 in 10.0 mi NNW 6.9 mph - N/A   Overcast
5:55 AM 48.2 °F 46.4 °F 93% 30.23 in 10.0 mi North 5.8 mph - N/A Rain Light Rain
6:15 AM 48.2 °F 41.0 °F 76% 30.25 in 10.0 mi North 9.2 mph - N/A   Overcast
6:35 AM 48.2 °F 39.2 °F 71% 30.26 in 10.0 mi North 3.5 mph - N/A   Overcast
6:55 AM 48.2 °F 39.2 °F 71% 30.27 in 10.0 mi North 3.5 mph - N/A   Overcast
7:15 AM 48.2 °F 39.2 °F 71% 30.27 in 10.0 mi North 5.8 mph - N/A Rain Light Rain
7:35 AM 48.2 °F 37.4 °F 66% 30.28 in 10.0 mi North 3.5 mph - N/A   Overcast
7:55 AM 48.2 °F 39.2 °F 71% 30.28 in 10.0 mi Calm Calm - N/A   Overcast
9:35 AM 46.4 °F 41.0 °F 81% 30.30 in 10.0 mi Calm Calm - N/A   Overcast
9:55 AM 48.2 °F 39.2 °F 71% 30.30 in 10.0 mi Calm Calm - N/A   Overcast
10:15 AM 48.2 °F 39.2 °F 71% 30.31 in 10.0 mi Calm Calm - N/A   Overcast
10:35 AM 48.2 °F 39.2 °F 71% 30.31 in 10.0 mi East 3.5 mph - N/A   Scattered Clouds
10:55 AM 50.0 °F 37.4 °F 62% 30.32 in 10.0 mi Calm Calm - N/A   Clear
11:15 AM 51.8 °F 35.6 °F 54% 30.31 in 10.0 mi Calm Calm - N/A   Clear
11:35 AM 53.6 °F 33.8 °F 47% 30.31 in 10.0 mi Calm Calm - N/A   Clear
11:55 AM 53.6 °F 33.8 °F 47% 30.30 in 10.0 mi Calm Calm - N/A   Clear
12:15 PM 55.4 °F 33.8 °F 44% 30.29 in 10.0 mi Calm Calm - N/A   Clear
12:35 PM 55.4 °F 33.8 °F 44% 30.28 in 10.0 mi Calm Calm - N/A   Clear
12:55 PM 55.4 °F 33.8 °F 44% 30.27 in 10.0 mi Calm Calm - N/A   Clear
1:15 PM 55.4 °F 33.8 °F 44% 30.26 in 10.0 mi Calm Calm - N/A   Clear
1:35 PM 57.2 °F 33.8 °F 41% 30.26 in 10.0 mi South 5.8 mph - N/A   Clear
1:55 PM 57.2 °F 33.8 °F 41% 30.25 in 10.0 mi SE 5.8 mph - N/A   Clear
2:15 PM 59.0 °F 28.4 °F 31% 30.24 in 10.0 mi NNE 5.8 mph - N/A   Clear
2:35 PM 59.0 °F 28.4 °F 31% 30.24 in 10.0 mi North 3.5 mph - N/A   Clear
2:55 PM 59.0 °F 28.4 °F 31% 30.23 in 10.0 mi NNW 6.9 mph - N/A   Clear
3:15 PM 59.0 °F 28.4 °F 31% 30.23 in 10.0 mi NNW 5.8 mph - N/A   Clear
3:35 PM 59.0 °F 28.4 °F 31% 30.23 in 10.0 mi NNW 6.9 mph - N/A   Clear
3:55 PM 59.0 °F 26.6 °F 29% 30.24 in 10.0 mi Calm Calm - N/A   Clear
4:15 PM 59.0 °F 28.4 °F 31% 30.24 in 10.0 mi Calm Calm - N/A   Clear
4:35 PM 57.2 °F 28.4 °F 33% 30.24 in 10.0 mi North 3.5 mph - N/A   Clear
4:55 PM 55.4 °F 30.2 °F 38% 30.24 in 10.0 mi NNW 3.5 mph - N/A   Clear
5:15 PM 53.6 °F 30.2 °F 41% 30.25 in 10.0 mi North 3.5 mph - N/A   Clear
5:35 PM 50.0 °F 28.4 °F 43% 30.25 in 10.0 mi North 3.5 mph - N/A   Clear
5:55 PM 50.0 °F 32.0 °F 50% 30.25 in 10.0 mi Calm Calm - N/A   Clear
6:15 PM 46.4 °F 32.0 °F 57% 30.25 in 10.0 mi Calm Calm - N/A   Clear
6:35 PM 42.8 °F 32.0 °F 66% 30.25 in 10.0 mi Calm Calm - N/A   Clear
6:55 PM 41.0 °F 32.0 °F 70% 30.26 in 10.0 mi Calm Calm - N/A   Clear
7:15 PM 39.2 °F 32.0 °F 75% 30.26 in 10.0 mi Calm Calm - N/A   Clear
7:35 PM 39.2 °F 32.0 °F 75% 30.26 in 10.0 mi Calm Calm - N/A   Clear
7:55 PM 37.4 °F 32.0 °F 81% 30.26 in 10.0 mi Calm Calm - N/A   Clear
8:15 PM 37.4 °F 32.0 °F 81% 30.25 in 10.0 mi Calm Calm - N/A   Clear
8:35 PM 35.6 °F 30.2 °F 81% 30.26 in 10.0 mi Calm Calm - N/A   Clear
8:55 PM 35.6 °F 32.0 °F 87% 30.25 in 10.0 mi Calm Calm - N/A   Clear
9:15 PM 33.8 °F 32.0 °F 93% 30.25 in 10.0 mi Calm Calm - N/A   Clear
9:35 PM 32.0 °F 30.2 °F 93% 30.24 in 10.0 mi Calm Calm - N/A   Clear
9:55 PM 32.0 °F 30.2 °F 93% 30.24 in 10.0 mi Calm Calm - N/A   Clear
10:15 PM 32.0 °F 32.0 °F 100% 30.23 in 10.0 mi Calm Calm - N/A   Clear
10:35 PM 32.0 °F 30.2 °F 93% 30.23 in 10.0 mi Calm Calm - N/A   Clear
10:55 PM 32.0 °F 30.2 °F 93% 30.23 in 10.0 mi Calm Calm - N/A   Clear
11:15 PM 32.0 °F 30.2 °F 93% 30.23 in 10.0 mi Calm Calm - N/A   Clear
11:35 PM 30.2 °F 28.4 °F 93% 30.22 in 10.0 mi Calm Calm - N/A   Clear
11:55 PM 28.4 °F 28.4 °F 100% 30.22 in 10.0 mi Calm Calm - N/A   Clear